Location: Newark
(54.4333°N, 18.5500°E)
Time: 22:08:04
(UTC+00:00)

Envisat - Pass Details

Date: 17 December 2019
Orbit: 764 x 766 km, 98.1° (Epoch: 19 January)

Event Time Altitude Azimuth Distance (km) Brightness Sun altitude
Rises 18:19:19 0° 223° (SW) 3,227 6.7 -32.9°
Reaches altitude 10° 18:23:03 10° 251° (WSW) 2,307 6.2 -33.4°
Maximum altitude 18:25:16 13° 277° (W) 2,121 6.0 -33.7°
Drops below altitude 10° 18:27:31 10° 304° (WNW) 2,315 6.1 -34.1°
Sets 18:31:17 0° 332° (NNW) 3,248 6.7 -34.6°
